Weather History for Abilene, TX

Change the Weather History Date:

Friday, October 28, 2011

  Actual Average Record
Temperature  
Mean Temperature 49 °F 62 °F  
Max Temperature 58 °F 74 °F 91 °F (1950)
Min Temperature 39 °F 51 °F 28 °F (1925)
Degree Days  
Heating Degree Days 16 5  
Month to date heating degree days 47 76  
Since 1 July heating degree days 47 87  
Cooling Degree Days 0 2  
Month to date cooling degree days 145 111  
Year to date cooling degree days 3487 2382  
Moisture  
Dew Point 38 °F    
Average Humidity 68    
Maximum Humidity 96    
Minimum Humidity 40    
Precipitation  
Precipitation 0.00 in 0.08 in 1.64 in (1996)
Month to date precipitation 4.09 2.74  
Year to date precipitation 14.72 21.94  
Sea Level Pressure  
Sea Level Pressure 30.28 in    
Wind  
Wind Speed 8 mph (NNW)    
Max Wind Speed 16 mph    
Max Gust Speed 24 mph    
Visibility 10 miles    
Events      
T = Trace of Precipitation, MM = Missing Value Source: NWS Daily Summary

Daily Weather History Graph

Daily Weather History Graph

Search for Another Location

Airport:

Trip Planner

Search our weather history database for the weather conditions in past years. The results will help you decide how hot, cold, wet, or windy it might be!

Date:

Astronomy

Oct. 28, 2011 Rise Set
Actual Time 7:52 AM CDT 6:52 PM CDT
Civil Twilight 7:27 AM CDT 7:17 PM CDT
Nautical Twilight 6:58 AM CDT 7:46 PM CDT
Astronomical Twilight 6:29 AM CDT 8:14 PM CDT
Moon 10:00 AM CDT (10/28) 8:26 PM CDT (10/28)
Length of Visible Light 11h 50m
Length of Day
10h 59m
Waxing Crescent, 5% of the Moon is Illuminated
Oct 28
Waxing Crescent
Nov 2
First Quarter
Nov 10
Full
Nov 18
Last Quarter
Nov 25
New

Hourly Weather History & Observations

Time (CDT) Temp. Windchill Dew Point Humidity Pressure Visibility Wind Dir Wind Speed Gust Speed Precip Events Conditions
12:31 AM 41.0 °F 35.8 °F 41.0 °F 100% 30.23 in 10.0 mi NW 8.1 mph - N/A   Mostly Cloudy
12:52 AM 42.1 °F 36.6 °F 41.0 °F 96% 30.22 in 10.0 mi NW 9.2 mph - N/A   Overcast
1:52 AM 44.1 °F 38.6 °F 41.0 °F 89% 30.22 in 10.0 mi NNW 10.4 mph - N/A   Overcast
2:14 AM 44.6 °F 38.8 °F 41.0 °F 87% 30.23 in 10.0 mi NNW 11.5 mph - N/A   Overcast
2:52 AM 44.1 °F 38.1 °F 39.9 °F 85% 30.23 in 10.0 mi NNW 11.5 mph - N/A   Overcast
3:52 AM 44.1 °F 38.1 °F 39.9 °F 85% 30.22 in 10.0 mi NNW 11.5 mph 59.8 mph N/A   Overcast
4:52 AM 44.1 °F 38.6 °F 39.9 °F 85% 30.23 in 10.0 mi NNW 10.4 mph - N/A   Overcast
5:52 AM 44.1 °F 39.0 °F 41.0 °F 89% 30.25 in 10.0 mi NNW 9.2 mph - N/A   Overcast
6:52 AM 44.1 °F 38.6 °F 39.9 °F 85% 30.26 in 10.0 mi NNW 10.4 mph - N/A   Overcast
7:52 AM 44.1 °F 39.0 °F 39.9 °F 85% 30.27 in 10.0 mi NNW 9.2 mph - N/A   Overcast
8:52 AM 44.1 °F 39.0 °F 39.9 °F 85% 30.30 in 10.0 mi NNW 9.2 mph - N/A   Mostly Cloudy
9:52 AM 46.9 °F - 39.0 °F 74% 30.33 in 10.0 mi NW 11.5 mph - N/A   Scattered Clouds
10:52 AM 50.0 °F - 39.9 °F 68% 30.35 in 10.0 mi NNW 9.2 mph - N/A   Clear
11:52 AM 51.1 °F - 37.9 °F 61% 30.35 in 10.0 mi NNW 12.7 mph 19.6 mph N/A   Partly Cloudy
12:52 PM 53.1 °F - 37.9 °F 57% 30.34 in 10.0 mi North 10.4 mph 19.6 mph N/A   Scattered Clouds
1:52 PM 55.9 °F - 37.9 °F 51% 30.30 in 10.0 mi NNW 11.5 mph 16.1 mph N/A   Scattered Clouds
2:52 PM 57.0 °F - 35.1 °F 44% 30.27 in 10.0 mi NE 4.6 mph - N/A   Clear
3:52 PM 57.0 °F - 36.0 °F 45% 30.26 in 10.0 mi North 6.9 mph - N/A   Clear
4:52 PM 57.0 °F - 34.0 °F 42% 30.27 in 10.0 mi North 9.2 mph - N/A   Clear
5:52 PM 57.0 °F - 35.1 °F 44% 30.27 in 10.0 mi North 10.4 mph - N/A   Clear
6:52 PM 54.0 °F - 35.1 °F 49% 30.28 in 10.0 mi North 6.9 mph - N/A   Clear
7:52 PM 52.0 °F - 35.1 °F 53% 30.31 in 10.0 mi NNE 4.6 mph - N/A   Clear
8:52 PM 50.0 °F - 35.1 °F 57% 30.32 in 10.0 mi NE 3.5 mph - N/A   Clear
9:52 PM 45.0 °F - 37.0 °F 74% 30.32 in 10.0 mi Calm Calm - N/A   Clear
10:52 PM 43.0 °F - 37.0 °F 80% 30.32 in 10.0 mi Calm Calm - N/A   Clear
11:52 PM 41.0 °F 39.0 °F 37.0 °F 86% 30.32 in 10.0 mi South 3.5 mph - N/A   Clear